カタログに戻る

STARLINK-5016

運用中通信VLEO
NORAD 56143·PAYLOAD·🇺🇸 United States

打ち上げ Mar 29, 2023 から Cape Canaveral Space Force Station

Loading…

次のパス (今後24時間)

TLE

最新Source: CelesTrak SupGP

元期: Sep 15, 2026, 02:48 UTC

1 56143C 23046BC  26258.11715278  .00043711  00000+0  19466-2 0  2580
2 56143  42.9971 173.3311 0005774 177.6097 105.1587 15.20628462    16

AllMySatでSTARLINK-5016をリアルタイム追跡

Download on the App Store